Погода в Володине

Россия / Томская область     57°05′42″N   83°53′22″E
темп.,
°C
ветер,
м/с
пор.,
м/с
влажн.,
%
обл.,
%
осадки,
мм/ч
давл.,
гПа
погр.,
м
12 мая, ср
ср1201:00+10ссв411635 0.0 1020220
04:00+7с35705 0.0 101984
07:00+9с25682 0.0 1019134
10:00+15с34450 0.0 1018561
13:00+19с22333 0.0 10172058
16:00+20з232774 0.0 10152779
19:00+19з332930 0.0 10142531
22:00+13сз22455 0.0 101413
13 мая, чт
чт1301:00+11с00485 0.0 101410
04:00+9з22530 0.0 101313
07:00+9сз235655 0.0 1013105
10:00+14ссз4555100 0.0 1013548
13:00+17зюз353979 0.0 10121490
16:00+15сз6657100 0.1 10131117
19:00+11сз4778100 0.5 1014581
22:00+9сз248749 0.2 101465
14 мая, пт
пт1401:00+7зсз36904 0.2 1014102
04:00+6сз4118387 0.0 1015438
07:00+7ссз697582 0.0 1017943
10:00+7ссз69495 0.0 10191336
13:00+11ссз69325 0.0 10191698
16:00+13сз692451 0.0 10191812
19:00+13сз582993 0.0 10201788
22:00+9зсз6951100 0.0 1022598
15 мая, сб
сб1501:00+8юз41067100 0.1 1020367
04:00+10юз6145921 0.1 1017543
07:00+10юз6136543 0.3 1016465
10:00+16зюз686355 0.7 1015698
13:00+22зюз7948100 0.7 10141208
16:00+22з51050100 0.1 10121553
19:00+19с41070100 2.3 10131072
22:00+15зсз2593100 4.3 1013104
16 мая, вс
вс1601:00+12зюз3895100 5.1 1014237
04:00+11зюз239589 0.0 101365
07:00+13зюз2493100 0.0 1013154
10:00+17зсз4580100 0.1 1013800
13:00+14ссз3493100 0.2 1014511
16:00+16сз3573100 0.0 1014933
19:00+17ю126655 0.0 1012575
22:00+14юв2589100 0.6 101293